Time,TemperatureF,DewpointF,PressureIn,WindDirection,WindDirectionDegrees,WindSpeedMPH,WindSpeedGustMPH,Humidity,HourlyPrecipIn,Conditions,Clouds,dailyrainin,SoftwareType,DateUTC
2013-04-15 00:03:00,59.0,55.0,-100.00,North,0,1.0,8.0,87,-99.99,,,-99.99,,2013-04-15 04:03:00,
2013-04-15 00:13:00,58.0,56.0,-100.00,NNE,30,1.0,4.0,95,-99.99,,,-99.99,,2013-04-15 04:13:00,
2013-04-15 00:23:00,57.0,57.0,-100.00,North,0,1.0,5.0,99,-99.99,,,-99.99,,2013-04-15 04:23:00,
2013-04-15 00:33:00,57.0,56.0,-100.00,NNW,345,2.0,4.0,99,-99.99,,,-99.99,,2013-04-15 04:33:00,
2013-04-15 00:43:00,56.0,56.0,-100.00,North,350,1.0,3.0,99,-99.99,,,-99.99,,2013-04-15 04:43:00,
2013-04-15 00:52:00,56.0,56.0,-100.00,NNW,340,2.0,4.0,99,-99.99,,,-99.99,,2013-04-15 04:52:00,
2013-04-15 01:03:00,56.0,56.0,-100.00,North,0,1.0,2.0,99,-99.99,,,-99.99,,2013-04-15 05:03:00,
2013-04-15 01:13:00,56.0,54.0,-100.00,North,0,1.0,3.0,94,-99.99,,,-99.99,,2013-04-15 05:13:00,
2013-04-15 01:23:00,56.0,55.0,-100.00,North,355,0.0,3.0,98,-99.99,,,-99.99,,2013-04-15 05:23:00,
2013-04-15 01:33:00,55.0,55.0,-100.00,North,0,1.0,3.0,98,-99.99,,,-99.99,,2013-04-15 05:33:00,
2013-04-15 01:42:00,55.0,55.0,-100.00,NNE,25,1.0,4.0,99,-99.99,,,-99.99,,2013-04-15 05:42:00,
2013-04-15 01:52:00,55.0,55.0,-100.00,NNW,330,1.0,3.0,99,-99.99,,,-99.99,,2013-04-15 05:52:00,
2013-04-15 02:02:00,55.0,55.0,-100.00,North,10,1.0,4.0,99,-99.99,,,-99.99,,2013-04-15 06:02:00,
2013-04-15 02:12:00,55.0,55.0,-100.00,NW,325,1.0,4.0,99,-99.99,,,-99.99,,2013-04-15 06:12:00,
2013-04-15 02:23:00,55.0,55.0,-100.00,North,0,3.0,4.0,99,-99.99,,,-99.99,,2013-04-15 06:23:00,
2013-04-15 02:34:00,55.0,55.0,-100.00,NNW,335,2.0,3.0,99,-99.99,,,-99.99,,2013-04-15 06:34:00,
2013-04-15 02:40:00,55.0,55.0,-100.00,North,5,1.0,4.0,99,-99.99,,,-99.99,,2013-04-15 06:40:00,
2013-04-15 02:42:00,55.0,55.0,-100.00,NE,50,1.0,4.0,99,-99.99,,,-99.99,,2013-04-15 06:42:00,
2013-04-15 02:52:00,55.0,55.0,-100.00,North,0,2.0,4.0,99,-99.99,,,-99.99,,2013-04-15 06:52:00,
2013-04-15 03:03:00,55.0,55.0,-100.00,North,350,1.0,4.0,99,-99.99,,,-99.99,,2013-04-15 07:03:00,
2013-04-15 03:42:00,55.0,55.0,-100.00,NNW,330,4.0,-999.0,99,-99.99,,,-99.99,,2013-04-15 07:42:00,
2013-04-15 03:43:00,55.0,55.0,-100.00,West,265,0.0,4.0,99,-99.99,,,-99.99,,2013-04-15 07:43:00,
2013-04-15 03:53:00,55.0,55.0,-100.00,NNE,15,1.0,4.0,99,-99.99,,,-99.99,,2013-04-15 07:53:00,
2013-04-15 04:03:00,55.0,55.0,-100.00,North,355,0.0,3.0,99,-99.99,,,-99.99,,2013-04-15 08:03:00,
2013-04-15 04:14:00,55.0,55.0,-100.00,NW,320,1.0,4.0,99,-99.99,,,-99.99,,2013-04-15 08:14:00,
2013-04-15 04:22:00,55.0,55.0,-100.00,NNE,15,2.0,4.0,99,-99.99,,,-99.99,,2013-04-15 08:22:00,
2013-04-15 04:34:00,55.0,55.0,-100.00,North,5,3.0,5.0,99,-99.99,,,-99.99,,2013-04-15 08:34:00,
2013-04-15 04:43:00,55.0,55.0,-100.00,ENE,75,5.0,7.0,99,-99.99,,,-99.99,,2013-04-15 08:43:00,
2013-04-15 04:52:00,55.0,55.0,-100.00,NW,315,4.0,9.0,99,-99.99,,,-99.99,,2013-04-15 08:52:00,
2013-04-15 05:03:00,55.0,55.0,-100.00,North,0,2.0,5.0,99,-99.99,,,-99.99,,2013-04-15 09:03:00,
2013-04-15 05:13:00,55.0,55.0,-100.00,North,0,1.0,3.0,99,-99.99,,,-99.99,,2013-04-15 09:13:00,
2013-04-15 05:23:00,55.0,55.0,-100.00,NE,40,1.0,3.0,99,-99.99,,,-99.99,,2013-04-15 09:23:00,
2013-04-15 05:33:00,55.0,55.0,-100.00,North,350,3.0,5.0,99,-99.99,,,-99.99,,2013-04-15 09:33:00,
2013-04-15 05:43:00,55.0,55.0,-100.00,North,0,3.0,4.0,99,-99.99,,,-99.99,,2013-04-15 09:43:00,
2013-04-15 05:53:00,55.0,55.0,-100.00,WNW,295,1.0,4.0,99,-99.99,,,-99.99,,2013-04-15 09:53:00,
2013-04-15 06:03:00,55.0,55.0,-100.00,NNE,25,2.0,5.0,99,-99.99,,,-99.99,,2013-04-15 10:03:00,
2013-04-15 06:13:00,55.0,55.0,-100.00,NNW,335,1.0,4.0,99,-99.99,,,-99.99,,2013-04-15 10:13:00,
2013-04-15 06:23:00,55.0,55.0,-100.00,North,0,1.0,3.0,99,-99.99,,,-99.99,,2013-04-15 10:23:00,
2013-04-15 06:33:00,55.0,55.0,-100.00,North,0,1.0,4.0,99,-99.99,,,-99.99,,2013-04-15 10:33:00,
2013-04-15 06:42:00,55.0,55.0,-100.00,North,355,0.0,3.0,99,-99.99,,,-99.99,,2013-04-15 10:42:00,
2013-04-15 06:52:00,55.0,55.0,-100.00,North,355,1.0,4.0,99,-99.99,,,-99.99,,2013-04-15 10:52:00,
2013-04-15 07:03:00,56.0,55.0,-100.00,NW,305,1.0,2.0,99,-99.99,,,-99.99,,2013-04-15 11:03:00,
2013-04-15 07:13:00,56.0,55.0,-100.00,NW,315,0.0,2.0,99,-99.99,,,-99.99,,2013-04-15 11:13:00,
2013-04-15 07:23:00,56.0,55.0,-100.00,North,0,1.0,4.0,99,-99.99,,,-99.99,,2013-04-15 11:23:00,
2013-04-15 07:33:00,56.0,55.0,-100.00,NE,45,2.0,4.0,99,-99.99,,,-99.99,,2013-04-15 11:33:00,
2013-04-15 07:43:00,56.0,55.0,-100.00,NNE,15,1.0,4.0,99,-99.99,,,-99.99,,2013-04-15 11:43:00,
2013-04-15 07:53:00,56.0,56.0,-100.00,NNE,15,1.0,2.0,99,-99.99,,,-99.99,,2013-04-15 11:53:00,
2013-04-15 08:05:00,56.0,56.0,-100.00,North,0,1.0,4.0,99,-99.99,,,-99.99,,2013-04-15 12:05:00,
2013-04-15 08:14:00,56.0,56.0,-100.00,NNW,335,2.0,4.0,99,-99.99,,,-99.99,,2013-04-15 12:14:00,
2013-04-15 08:23:00,56.0,56.0,-100.00,North,0,1.0,4.0,99,-99.99,,,-99.99,,2013-04-15 12:23:00,
2013-04-15 08:34:00,56.0,56.0,-100.00,NNE,25,2.0,4.0,99,-99.99,,,-99.99,,2013-04-15 12:34:00,
2013-04-15 08:43:00,56.0,56.0,-100.00,NNE,25,2.0,4.0,99,-99.99,,,-99.99,,2013-04-15 12:43:00,
2013-04-15 08:53:00,56.0,56.0,-100.00,North,350,1.0,3.0,99,-99.99,,,-99.99,,2013-04-15 12:53:00,
2013-04-15 09:05:00,56.0,56.0,-100.00,North,0,1.0,4.0,99,-99.99,,,-99.99,,2013-04-15 13:05:00,
2013-04-15 09:13:00,56.0,56.0,-100.00,North,0,2.0,5.0,99,-99.99,,,-99.99,,2013-04-15 13:13:00,
2013-04-15 09:23:00,56.0,56.0,-100.00,NNW,335,2.0,4.0,99,-99.99,,,-99.99,,2013-04-15 13:23:00,
2013-04-15 09:34:00,56.0,56.0,-100.00,North,0,2.0,4.0,99,-99.99,,,-99.99,,2013-04-15 13:34:00,
2013-04-15 09:43:00,56.0,56.0,-100.00,NNW,340,4.0,4.0,99,-99.99,,,-99.99,,2013-04-15 13:43:00,
2013-04-15 09:53:00,56.0,56.0,-100.00,North,0,1.0,4.0,99,-99.99,,,-99.99,,2013-04-15 13:53:00,
2013-04-15 10:05:00,57.0,56.0,-100.00,North,355,3.0,4.0,99,-99.99,,,-99.99,,2013-04-15 14:05:00,
2013-04-15 10:13:00,57.0,57.0,-100.00,NNW,335,2.0,5.0,99,-99.99,,,-99.99,,2013-04-15 14:13:00,
2013-04-15 10:23:00,57.0,57.0,-100.00,North,350,4.0,6.0,99,-99.99,,,-99.99,,2013-04-15 14:23:00,
2013-04-15 10:34:00,57.0,57.0,-100.00,NNW,345,2.0,6.0,99,-99.99,,,-99.99,,2013-04-15 14:34:00,
2013-04-15 10:44:00,58.0,57.0,-100.00,NNW,335,4.0,6.0,99,-99.99,,,-99.99,,2013-04-15 14:44:00,
2013-04-15 10:54:00,58.0,58.0,-100.00,North,355,4.0,8.0,99,-99.99,,,-99.99,,2013-04-15 14:54:00,
2013-04-15 11:04:00,58.0,58.0,-100.00,North,10,4.0,6.0,99,-99.99,,,-99.99,,2013-04-15 15:04:00,
2013-04-15 11:13:00,58.0,58.0,-100.00,North,0,4.0,7.0,99,-99.99,,,-99.99,,2013-04-15 15:13:00,
2013-04-15 11:24:00,59.0,59.0,-100.00,North,0,4.0,9.0,99,-99.99,,,-99.99,,2013-04-15 15:24:00,
2013-04-15 11:36:00,59.0,59.0,-100.00,North,355,2.0,10.0,99,-99.99,,,-99.99,,2013-04-15 15:36:00,
2013-04-15 11:44:00,59.0,59.0,-100.00,North,0,4.0,8.0,99,-99.99,,,-99.99,,2013-04-15 15:44:00,
2013-04-15 11:54:00,59.0,59.0,-100.00,North,0,5.0,10.0,99,-99.99,,,-99.99,,2013-04-15 15:54:00,
2013-04-15 12:05:00,60.0,59.0,-100.00,NNE,25,4.0,8.0,99,-99.99,,,-99.99,,2013-04-15 16:05:00,
2013-04-15 12:14:00,60.0,60.0,-100.00,North,10,4.0,7.0,99,-99.99,,,-99.99,,2013-04-15 16:14:00,
2013-04-15 12:25:00,61.0,61.0,-100.00,North,0,2.0,8.0,99,-99.99,,,-99.99,,2013-04-15 16:25:00,
2013-04-15 12:34:00,62.0,61.0,-100.00,NNW,345,5.0,8.0,99,-99.99,,,-99.99,,2013-04-15 16:34:00,
2013-04-15 12:44:00,61.0,61.0,-100.00,NW,325,4.0,8.0,99,-99.99,,,-99.99,,2013-04-15 16:44:00,
2013-04-15 12:53:00,61.0,61.0,-100.00,NW,325,4.0,8.0,99,-99.99,,,-99.99,,2013-04-15 16:53:00,
2013-04-15 13:04:00,62.0,61.0,-100.00,NE,35,4.0,6.0,96,-99.99,,,-99.99,,2013-04-15 17:04:00,
2013-04-15 13:15:00,62.0,60.0,-100.00,North,10,5.0,9.0,96,-99.99,,,-99.99,,2013-04-15 17:15:00,
2013-04-15 13:22:00,62.0,61.0,-100.00,North,0,1.0,9.0,96,-99.99,,,-99.99,,2013-04-15 17:22:00,
2013-04-15 13:33:00,64.0,61.0,-100.00,ENE,70,4.0,6.0,89,-99.99,,,-99.99,,2013-04-15 17:33:00,
2013-04-15 13:43:00,64.0,61.0,-100.00,NE,35,2.0,7.0,89,-99.99,,,-99.99,,2013-04-15 17:43:00,
2013-04-15 13:52:00,64.0,61.0,-100.00,NE,35,2.0,7.0,89,-99.99,,,-99.99,,2013-04-15 17:52:00,
2013-04-15 14:04:00,64.0,60.0,-100.00,NE,55,6.0,11.0,86,-99.99,,,-99.99,,2013-04-15 18:04:00,
2013-04-15 14:13:00,66.0,61.0,-100.00,NE,50,4.0,9.0,83,-99.99,,,-99.99,,2013-04-15 18:13:00,
2013-04-15 14:24:00,66.0,61.0,-100.00,East,100,6.0,11.0,83,-99.99,,,-99.99,,2013-04-15 18:24:00,
2013-04-15 14:33:00,67.0,60.0,-100.00,ESE,105,4.0,11.0,79,-99.99,,,-99.99,,2013-04-15 18:33:00,
2013-04-15 14:42:00,67.0,60.0,-100.00,ENE,75,5.0,9.0,79,-99.99,,,-99.99,,2013-04-15 18:42:00,
2013-04-15 14:52:00,67.0,60.0,-100.00,ENE,75,5.0,9.0,79,-99.99,,,-99.99,,2013-04-15 18:52:00,
2013-04-15 15:02:00,68.0,61.0,-100.00,ESE,110,5.0,11.0,78,-99.99,,,-99.99,,2013-04-15 19:02:00,
2013-04-15 15:12:00,68.0,60.0,-100.00,NE,40,4.0,10.0,75,-99.99,,,-99.99,,2013-04-15 19:12:00,
2013-04-15 15:22:00,67.0,60.0,-100.00,NE,45,6.0,14.0,77,-99.99,,,-99.99,,2013-04-15 19:22:00,
2013-04-15 15:38:00,68.0,59.0,-100.00,ESE,110,7.0,11.0,73,-99.99,,,-99.99,,2013-04-15 19:38:00,
2013-04-15 15:56:00,69.0,60.0,-100.00,ESE,110,6.0,11.0,72,-99.99,,,-99.99,,2013-04-15 19:56:00,
2013-04-15 15:59:00,69.0,60.0,-100.00,ESE,110,6.0,11.0,72,-99.99,,,-99.99,,2013-04-15 19:59:00,
2013-04-15 16:02:00,71.0,59.0,-100.00,ESE,120,4.0,10.0,66,-99.99,,,-99.99,,2013-04-15 20:02:00,
2013-04-15 16:12:00,70.0,59.0,-100.00,East,90,9.0,13.0,67,-99.99,,,-99.99,,2013-04-15 20:12:00,
2013-04-15 16:22:00,70.0,58.0,-100.00,East,80,4.0,10.0,66,-99.99,,,-99.99,,2013-04-15 20:22:00,
2013-04-15 16:32:00,71.0,58.0,-100.00,NE,55,4.0,9.0,65,-99.99,,,-99.99,,2013-04-15 20:32:00,
2013-04-15 16:42:00,69.0,58.0,-100.00,NE,55,6.0,12.0,69,-99.99,,,-99.99,,2013-04-15 20:42:00,
2013-04-15 16:52:00,69.0,58.0,-100.00,NE,55,6.0,12.0,69,-99.99,,,-99.99,,2013-04-15 20:52:00,
2013-04-15 17:02:00,68.0,58.0,-100.00,ENE,70,5.0,8.0,71,-99.99,,,-99.99,,2013-04-15 21:02:00,
2013-04-15 17:12:00,68.0,58.0,-100.00,NE,55,6.0,9.0,70,-99.99,,,-99.99,,2013-04-15 21:12:00,
2013-04-15 17:22:00,68.0,59.0,-100.00,ENE,65,7.0,11.0,73,-99.99,,,-99.99,,2013-04-15 21:22:00,
2013-04-15 17:33:00,68.0,59.0,-100.00,ENE,60,6.0,9.0,74,-99.99,,,-99.99,,2013-04-15 21:33:00,
2013-04-15 17:43:00,67.0,59.0,-100.00,NE,50,6.0,10.0,74,-99.99,,,-99.99,,2013-04-15 21:43:00,
2013-04-15 17:53:00,68.0,60.0,-100.00,NE,50,4.0,10.0,75,-99.99,,,-99.99,,2013-04-15 21:53:00,
2013-04-15 18:02:00,67.0,59.0,-100.00,NE,40,5.0,9.0,76,-99.99,,,-99.99,,2013-04-15 22:02:00,
2013-04-15 18:13:00,67.0,60.0,-100.00,NNE,30,2.0,8.0,77,-99.99,,,-99.99,,2013-04-15 22:13:00,
2013-04-15 18:23:00,67.0,60.0,-100.00,NE,45,5.0,8.0,77,-99.99,,,-99.99,,2013-04-15 22:23:00,
2013-04-15 18:33:00,67.0,60.0,-100.00,ENE,65,4.0,7.0,77,-99.99,,,-99.99,,2013-04-15 22:33:00,
2013-04-15 18:42:00,67.0,59.0,-100.00,ENE,60,6.0,9.0,77,-99.99,,,-99.99,,2013-04-15 22:42:00,
2013-04-15 18:52:00,67.0,59.0,-100.00,ENE,65,5.0,7.0,77,-99.99,,,-99.99,,2013-04-15 22:52:00,
2013-04-15 19:02:00,67.0,60.0,-100.00,NE,50,4.0,8.0,78,-99.99,,,-99.99,,2013-04-15 23:02:00,
2013-04-15 19:12:00,66.0,59.0,-100.00,North,0,4.0,8.0,79,-99.99,,,-99.99,,2013-04-15 23:12:00,
2013-04-15 19:22:00,66.0,59.0,-100.00,North,0,4.0,7.0,79,-99.99,,,-99.99,,2013-04-15 23:22:00,
2013-04-15 19:32:00,66.0,59.0,-100.00,North,10,3.0,6.0,79,-99.99,,,-99.99,,2013-04-15 23:32:00,
2013-04-15 19:42:00,66.0,59.0,-100.00,NE,50,5.0,8.0,80,-99.99,,,-99.99,,2013-04-15 23:42:00,
2013-04-15 19:52:00,65.0,59.0,-100.00,North,350,3.0,8.0,81,-99.99,,,-99.99,,2013-04-15 23:52:00,
2013-04-15 20:03:00,65.0,59.0,-100.00,NE,55,2.0,7.0,82,-99.99,,,-99.99,,2013-04-16 00:03:00,
2013-04-15 20:12:00,65.0,59.0,-100.00,NNE,25,2.0,7.0,82,-99.99,,,-99.99,,2013-04-16 00:12:00,
2013-04-15 20:22:00,64.0,59.0,-100.00,NE,40,2.0,7.0,83,-99.99,,,-99.99,,2013-04-16 00:22:00,
2013-04-15 20:32:00,64.0,59.0,-100.00,NE,40,2.0,7.0,83,-99.99,,,-99.99,,2013-04-16 00:32:00,
2013-04-15 20:42:00,64.0,59.0,-100.00,NNE,15,2.0,7.0,85,-99.99,,,-99.99,,2013-04-16 00:42:00,
2013-04-15 20:52:00,63.0,59.0,-100.00,ENE,70,1.0,4.0,86,-99.99,,,-99.99,,2013-04-16 00:52:00,
2013-04-15 21:02:00,63.0,59.0,-100.00,North,0,3.0,6.0,87,-99.99,,,-99.99,,2013-04-16 01:02:00,
2013-04-15 21:12:00,63.0,59.0,-100.00,North,0,3.0,7.0,87,-99.99,,,-99.99,,2013-04-16 01:12:00,
2013-04-15 21:22:00,63.0,59.0,-100.00,NNE,25,2.0,4.0,88,-99.99,,,-99.99,,2013-04-16 01:22:00,
2013-04-15 21:32:00,63.0,59.0,-100.00,NNE,25,3.0,6.0,89,-99.99,,,-99.99,,2013-04-16 01:32:00,
2013-04-15 21:42:00,62.0,59.0,-100.00,North,0,2.0,7.0,89,-99.99,,,-99.99,,2013-04-16 01:42:00,
2013-04-15 21:52:00,62.0,59.0,-100.00,NE,40,1.0,6.0,90,-99.99,,,-99.99,,2013-04-16 01:52:00,
2013-04-15 22:02:00,62.0,59.0,-100.00,North,0,2.0,10.0,90,-99.99,,,-99.99,,2013-04-16 02:02:00,
2013-04-15 22:12:00,62.0,59.0,-100.00,North,0,4.0,8.0,90,-99.99,,,-99.99,,2013-04-16 02:12:00,
2013-04-15 22:22:00,62.0,59.0,-100.00,NE,50,2.0,4.0,90,-99.99,,,-99.99,,2013-04-16 02:22:00,
2013-04-15 22:32:00,62.0,59.0,-100.00,North,5,1.0,6.0,91,-99.99,,,-99.99,,2013-04-16 02:32:00,
2013-04-15 22:42:00,61.0,59.0,-100.00,NE,40,1.0,3.0,91,-99.99,,,-99.99,,2013-04-16 02:42:00,
2013-04-15 22:52:00,61.0,59.0,-100.00,NE,35,1.0,4.0,92,-99.99,,,-99.99,,2013-04-16 02:52:00,
2013-04-15 23:02:00,61.0,59.0,-100.00,North,5,1.0,4.0,93,-99.99,,,-99.99,,2013-04-16 03:02:00,
2013-04-15 23:12:00,61.0,59.0,-100.00,NE,40,1.0,4.0,93,-99.99,,,-99.99,,2013-04-16 03:12:00,
2013-04-15 23:22:00,61.0,59.0,-100.00,ENE,60,1.0,4.0,93,-99.99,,,-99.99,,2013-04-16 03:22:00,
2013-04-15 23:33:00,61.0,59.0,-100.00,North,0,1.0,5.0,93,-99.99,,,-99.99,,2013-04-16 03:33:00,
2013-04-15 23:43:00,61.0,59.0,-100.00,North,0,1.0,3.0,94,-99.99,,,-99.99,,2013-04-16 03:43:00,
2013-04-15 23:52:00,61.0,59.0,-100.00,NNE,30,1.0,4.0,94,-99.99,,,-99.99,,2013-04-16 03:52:00,